Weather History for Poplar Bluff, MO

Change the Weather History Date:

Tuesday, January 1, 2013

  Actual Average Record
Temperature  
Mean Temperature 32 °F -  
Max Temperature 37 °F 42 °F 65 °F (1952)
Min Temperature 27 °F 23 °F -2 °F (1928)
Degree Days  
Heating Degree Days 32    
Moisture  
Dew Point 30 °F    
Average Humidity 82    
Maximum Humidity 100    
Minimum Humidity 69    
Precipitation  
Precipitation 0.00 in - - ()
Sea Level Pressure  
Sea Level Pressure 30.14 in    
Wind  
Wind Speed 6 mph (North)    
Max Wind Speed 13 mph    
Max Gust Speed -    
Visibility 8 miles    
Events Snow    
Averages and records for this station are not official NWS values.
T = Trace of Precipitation, MM = Missing Value Source: NWS Daily Summary

Daily Weather History Graph

Daily Weather History Graph

Search for Another Location

Airport:

Trip Planner

Search our weather history database for the weather conditions in past years. The results will help you decide how hot, cold, wet, or windy it might be!

Date:

Astronomy

Jan. 01, 2013 Rise Set
Actual Time 7:14 AM CST 4:56 PM CST
Civil Twilight 6:45 AM CST 5:25 PM CST
Nautical Twilight 6:12 AM CST 5:57 PM CST
Astronomical Twilight 5:41 AM CST 6:28 PM CST
Moon 9:19 PM CST (1/1) 9:32 AM CST (1/1)
Length of Visible Light 10h 39m
Length of Day
9h 42m
Waning Gibbous, 83% of the Moon is Illuminated
Jan 1
Waning Gibbous
Jan 4
Last Quarter
Jan 11
New
Jan 18
First Quarter
Jan 26
Full

Hourly Weather History & Observations

Time (CST) Temp. Windchill Dew Point Humidity Pressure Visibility Wind Dir Wind Speed Gust Speed Precip Events Conditions
12:03 AM 37.4 °F - 35.6 °F 93% 30.05 in 1.8 mi Calm Calm - N/A   Overcast
12:53 AM 36.0 °F 32.1 °F 34.0 °F 93% 30.06 in 1.8 mi NNE 4.6 mph - N/A   Overcast
1:27 AM 37.4 °F 32.8 °F 33.8 °F 87% 30.05 in 2.0 mi North 5.8 mph - N/A   Overcast
1:53 AM 37.0 °F 33.3 °F 34.0 °F 89% 30.09 in 2.0 mi North 4.6 mph - N/A   Overcast
2:02 AM 37.4 °F 32.1 °F 33.8 °F 87% 30.07 in 1.8 mi NNW 6.9 mph - N/A   Overcast
2:53 AM 36.0 °F 32.1 °F 35.1 °F 97% 30.10 in 2.0 mi North 4.6 mph - N/A   Overcast
3:43 AM 35.6 °F 32.8 °F 35.6 °F 100% 30.07 in 4.0 mi NNE 3.5 mph - N/A   Overcast
3:53 AM 37.0 °F 33.3 °F 34.0 °F 89% 30.08 in 5.0 mi NNE 4.6 mph - N/A   Overcast
4:46 AM 37.4 °F 32.1 °F 33.8 °F 87% 30.07 in 9.0 mi NNE 6.9 mph - N/A   Overcast
4:53 AM 37.0 °F 32.4 °F 34.0 °F 89% 30.09 in 9.0 mi NNE 5.8 mph - N/A   Overcast
5:08 AM 37.4 °F 32.8 °F 33.8 °F 87% 30.07 in 9.0 mi NNE 5.8 mph - N/A   Overcast
5:30 AM 37.4 °F 32.8 °F 33.8 °F 87% 30.08 in 9.0 mi NE 5.8 mph - N/A   Overcast
5:53 AM 37.0 °F 29.8 °F 33.1 °F 86% 30.09 in 10.0 mi NE 10.4 mph - N/A   Overcast
6:53 AM 36.0 °F 29.6 °F 33.1 °F 89% 30.11 in 10.0 mi NNE 8.1 mph - N/A   Overcast
7:53 AM 36.0 °F 29.0 °F 32.0 °F 86% 30.14 in 10.0 mi North 9.2 mph - N/A   Overcast
8:53 AM 36.0 °F 28.5 °F 32.0 °F 86% 30.18 in 10.0 mi North 10.4 mph - N/A   Overcast
9:42 AM 35.6 °F 27.1 °F 32.0 °F 87% 30.13 in 10.0 mi NNE 12.7 mph - N/A   Overcast
9:53 AM 36.0 °F 29.6 °F 32.0 °F 86% 30.16 in 10.0 mi NNE 8.1 mph - N/A   Overcast
10:53 AM 37.0 °F 31.6 °F 30.9 °F 79% 30.21 in 9.0 mi NNE 6.9 mph - N/A   Overcast
11:26 AM 37.4 °F 32.8 °F 30.2 °F 75% 30.18 in 7.0 mi NNE 5.8 mph - 0.00 in Snow Light Snow
11:48 AM 35.6 °F 29.9 °F 30.2 °F 81% 30.17 in 5.0 mi North 6.9 mph - 0.00 in Snow Light Snow
11:53 AM 36.0 °F 29.0 °F 30.9 °F 82% 30.18 in 5.0 mi North 9.2 mph - 0.00 in Snow Light Snow
12:10 PM 35.6 °F 29.2 °F 30.2 °F 81% 30.13 in 9.0 mi NNE 8.1 mph - 0.00 in   Overcast
12:51 PM 35.6 °F 27.1 °F 30.2 °F 81% 30.13 in 10.0 mi North 12.7 mph - 0.00 in   Overcast
12:53 PM 36.0 °F 28.0 °F 28.9 °F 76% 30.15 in 10.0 mi North 11.5 mph - 0.00 in   Overcast
1:08 PM 35.6 °F 28.6 °F 30.2 °F 81% 30.12 in 10.0 mi NNE 9.2 mph - N/A   Overcast
1:22 PM 35.6 °F 27.5 °F 30.2 °F 81% 30.13 in 9.0 mi North 11.5 mph - N/A   Overcast
1:53 PM 35.1 °F 27.9 °F 28.9 °F 78% 30.14 in 9.0 mi North 9.2 mph - N/A   Overcast
2:24 PM 33.8 °F 24.8 °F 28.4 °F 81% 30.12 in 10.0 mi North 12.7 mph - N/A   Overcast
2:36 PM 35.6 °F 28.0 °F 28.4 °F 75% 30.14 in 10.0 mi North 10.4 mph - N/A   Overcast
2:53 PM 34.0 °F 25.5 °F 27.0 °F 75% 30.17 in 9.0 mi North 11.5 mph - N/A   Overcast
3:17 PM 33.8 °F 25.3 °F 26.6 °F 75% 30.15 in 9.0 mi NNW 11.5 mph - N/A   Overcast
3:53 PM 33.1 °F 24.4 °F 26.1 °F 75% 30.18 in 10.0 mi North 11.5 mph - N/A   Overcast
4:53 PM 33.1 °F 26.9 °F 25.0 °F 72% 30.19 in 10.0 mi North 6.9 mph - N/A   Overcast
5:53 PM 32.0 °F 24.8 °F 23.0 °F 69% 30.21 in 10.0 mi North 8.1 mph - N/A   Overcast
6:53 PM 30.9 °F 21.7 °F 21.9 °F 69% 30.23 in 10.0 mi North 11.5 mph - N/A   Mostly Cloudy
7:53 PM 30.0 °F 22.4 °F 21.9 °F 72% 30.25 in 10.0 mi North 8.1 mph - N/A   Clear
8:53 PM 30.0 °F 24.1 °F 21.0 °F 69% 30.24 in 10.0 mi North 5.8 mph - N/A   Clear
9:53 PM 28.9 °F 21.1 °F 19.9 °F 69% 30.26 in 10.0 mi North 8.1 mph - N/A   Clear
10:53 PM 28.0 °F 20.8 °F 19.9 °F 72% 30.28 in 10.0 mi NNW 6.9 mph - N/A   Clear
11:53 PM 27.0 °F 21.6 °F 19.0 °F 72% 30.26 in 10.0 mi North 4.6 mph - N/A   Clear